EW5773 Weather Reports


time (UTC)temp
C
wind
direction
speed
KPH
gust
KPH
rain 1hr
cm
rain 24hr
cm
rain mn
cm
humidity
%
barometer
mb
20260510043003 12 5 0.0 4.8 0.00 0.00 0.00 80 1009.0
20260510041504 12 5 3.2 8.0 0.00 0.00 0.00 80 1008.9
20260510040027 12 11 3.2 4.8 0.00 0.00 0.00 81 1009.1
20260510034620 12 360 6.4 9.7 0.00 0.00 0.00 81 1008.8
20260510033021 12 335 4.8 12.9 0.00 0.00 0.00 80 1008.9
20260510031520 12 346 4.8 9.7 0.00 0.00 0.00 80 1009.1
20260510030016 12 341 6.4 9.7 0.00 0.00 0.00 80 1009.2
20260510024515 12 360 4.8 9.7 0.00 0.00 0.00 80 1009.2
20260510023013 12 350 4.8 9.7 0.00 0.00 0.00 80 1009.2
20260510021523 13 355 3.2 8.0 0.00 0.00 0.00 79 1009.3
20260510020010 13 355 4.8 12.9 0.00 0.00 0.00 79 1009.3
20260510014508 13 350 6.4 9.7 0.00 0.00 0.00 80 1009.4
20260510013007 13 344 4.8 9.7 0.00 0.00 0.00 80 1009.5
20260510011506 13 333 4.8 12.9 0.00 0.00 0.00 80 1009.6
20260510010007 13 355 3.2 6.4 0.00 0.00 0.00 79 1009.7
20260510004504 13 355 4.8 8.0 0.00 0.00 0.00 79 1009.9
20260510003005 13 355 3.2 6.4 0.00 0.00 0.00 79 1010.1
20260510001504 14 360 3.2 8.0 0.00 0.00 0.00 80 1010.4
20260510000104 14 12 4.8 8.0 0.00 0.00 0.00 78 1010.5
20260509234529 14 20 3.2 8.0 0.00 0.00 0.00 77 1010.6
20260509233101 15 26 3.2 12.9 0.00 0.00 0.00 76 1010.7
20260509231516 15 24 6.4 16.1 0.00 0.00 0.00 77 1010.6
20260509230015 15 25 3.2 8.0 0.00 0.00 0.00 77 1010.7
20260509224512 15 24 3.2 8.0 0.00 0.00 0.00 77 1010.9
20260509223013 15 26 4.8 9.7 0.00 0.00 0.00 77 1010.8
20260509221511 15 32 4.8 8.0 0.00 0.00 0.00 76 1010.8
20260509220007 16 34 1.6 6.4 0.00 0.00 0.00 74 1011.1
20260509214505 16 34 3.2 6.4 0.00 0.00 0.00 73 1010.9
20260509213007 16 34 3.2 8.0 0.00 0.00 0.00 73 1011.3
20260509211508 17 36 3.2 8.0 0.00 0.00 0.00 71 1011.2
20260509210118 17 36 3.2 6.4 0.00 0.00 0.00 70 1011.0
20260509203019 18 35 3.2 9.7 0.00 0.00 0.00 68 1010.9
20260509201604 18 37 4.8 9.7 0.00 0.00 0.00 68 1010.9
20260509200012 18 36 3.2 9.7 0.00 0.00 0.00 67 1010.8
20260509194509 19 39 3.2 8.0 0.00 0.00 0.00 65 1010.7
20260509193012 20 44 3.2 8.0 0.00 0.00 0.00 64 1010.4
20260509191509 20 360 3.2 9.7 0.00 0.00 0.00 62 1010.4
20260509190008 20 40 4.8 9.7 0.00 0.00 0.00 61 1010.4
20260509184508 21 44 4.8 9.7 0.00 0.00 0.00 59 1010.5
20260509183006 21 83 6.4 19.3 0.00 0.00 0.00 57 1010.2
20260509181504 21 79 4.8 17.7 0.00 0.00 0.00 56 1010.1
20260509180004 22 84 8.0 19.3 0.00 0.00 0.00 55 1010.2
20260509174605 22 86 9.7 20.9 0.00 0.00 0.00 54 1010.2
20260509173017 22 83 11.3 22.5 0.00 0.00 0.00 50 1010.1
20260509171525 23 93 4.8 17.7 0.00 0.00 0.00 50 1010.2
20260509170025 23 70 9.7 19.3 0.00 0.00 0.00 48 1010.3
20260509164515 23 90 9.7 19.3 0.00 0.00 0.00 47 1010.5
20260509163015 23 94 6.4 14.5 0.00 0.00 0.00 49 1010.3
20260509161512 23 79 9.7 19.3 0.00 0.00 0.00 48 1010.5
20260509160036 23 83 8.0 25.7 0.00 0.00 0.00 47 1010.5
20260509154519 24 80 4.8 22.5 0.00 0.00 0.00 45 1010.7
20260509153015 24 71 4.8 19.3 0.00 0.00 0.00 48 1010.8
20260509151512 24 97 14.5 30.6 0.00 0.00 0.00 47 1011.1
20260509150017 24 77 9.7 20.9 0.00 0.00 0.00 49 1011.3
20260509144509 24 79 8.0 24.1 0.00 0.00 0.00 50 1011.4
20260509143007 24 42 14.5 25.7 0.00 0.00 0.00 49 1011.4
20260509141509 23 102 6.4 19.3 0.00 0.00 0.00 51 1011.3
20260509140006 23 76 11.3 24.1 0.00 0.00 0.00 53 1011.4
20260509134509 22 49 9.7 24.1 0.00 0.00 0.00 53 1011.3
20260509133103 23 40 16.1 30.6 0.00 0.00 0.00 54 1011.4
20260509131524 22 111 14.5 25.7 0.00 0.00 0.00 55 1011.5
20260509130018 23 57 8.0 20.9 0.00 0.00 0.00 54 1011.7
20260509124521 23 68 14.5 27.4 0.00 0.00 0.00 53 1011.7
20260509123016 23 71 11.3 32.2 0.00 0.00 0.00 54 1011.9
20260509121523 23 46 11.3 19.3 0.00 0.00 0.00 54 1012.0
20260509120015 22 115 6.4 17.7 0.00 0.00 0.00 56 1012.2
20260509114523 22 85 9.7 24.1 0.00 0.00 0.00 55 1012.4
20260509113010 22 82 8.0 17.7 0.00 0.00 0.00 56 1012.5
20260509111511 22 66 6.4 16.1 0.00 0.00 0.00 57 1012.7
20260509110009 21 53 6.4 20.9 0.00 0.00 0.00 59 1012.8
20260509104507 21 44 6.4 14.5 0.00 0.00 0.00 59 1013.0
20260509103006 20 43 8.0 17.7 0.00 0.00 0.00 61 1013.0
20260509101508 20 51 8.0 20.9 0.00 0.00 0.00 61 1013.0
20260509100013 20 48 8.0 16.1 0.00 0.00 0.00 61 1013.1
20260509094511 20 61 4.8 9.7 0.00 0.00 0.00 64 1013.1
20260509093004 19 42 6.4 16.1 0.00 0.00 0.00 64 1013.3
20260509091503 18 85 6.4 16.1 0.00 0.00 0.00 66 1013.3
20260509090005 18 59 3.2 11.3 0.00 0.00 0.00 69 1013.4
20260509084511 17 38 6.4 14.5 0.00 0.00 0.00 71 1013.4
20260509083103 16 355 4.8 14.5 0.00 0.00 0.00 73 1013.4
20260509081521 16 46 3.2 11.3 0.00 0.00 0.00 74 1013.5
20260509080019 15 360 6.4 9.7 0.00 0.00 0.00 75 1013.8
20260509074519 15 24 6.4 11.3 0.00 0.00 0.00 75 1013.9
20260509073018 14 68 3.2 9.7 0.00 0.00 0.00 76 1014.0
20260509071516 13 38 8.0 16.1 0.00 0.00 0.00 78 1014.0
20260509070016 12 44 8.0 14.5 0.00 0.00 0.00 81 1014.1
20260509064512 12 47 4.8 11.3 0.00 0.00 0.00 84 1014.1
20260509063010 11 53 4.8 9.7 0.00 0.00 0.00 87 1014.0
20260509061511 10 355 1.6 9.7 0.00 0.00 0.00 89 1014.1
20260509060011 10 5 6.4 12.9 0.00 0.00 0.00 89 1013.9
20260509054510 9 344 4.8 12.9 0.00 0.00 0.00 89 1013.9
20260509053010 8 342 6.4 12.9 0.00 0.00 0.00 90 1013.7
20260509051505 8 340 4.8 9.7 0.00 0.00 0.00 89 1013.7
20260509050007 8 344 6.4 12.9 0.00 0.00 0.00 90 1013.7
20260509044506 8 355 4.8 9.7 0.00 0.00 0.00 89 1013.7